Precipitable_Water
0.22 0.21 0.20 0.19 0.19 0.22 0.19 0.21 0.16 0.17 0.19 0.26 0.36 0.41 0.46 0.52 0.55 0.56 0.58 0.58 0.57 0.55 0.58 0.59 0.51 0.45 0.41 0.37 0.34 0.34 0.30 0.29 0.27 0.28 0.30 0.30 0.29 0.30 0.33 0.36 0.42 0.44 0.36 0.35
0.18 0.21 0.20 0.17 0.20 0.20 0.21 0.21 0.21 0.21 0.20 0.33 0.40 0.47 0.49 0.52 0.55 0.56 0.57 0.56 0.55 0.58 0.55 0.50 0.44 0.40 0.37 0.35 0.33 0.33 0.30 0.28 0.27 0.28 0.30 0.30 0.31 0.31 0.33 0.36 0.38 0.35 0.39 0.34
0.11 0.19 0.19 0.14 0.15 0.18 0.20 0.22 0.21 0.17 0.23 0.37 0.39 0.44 0.49 0.53 0.56 0.56 0.56 0.55 0.54 0.51 0.45 0.43 0.41 0.38 0.35 0.33 0.33 0.32 0.28 0.27 0.28 0.30 0.30 0.30 0.31 0.31 0.31 0.33 0.36 0.37 0.32 0.31
0.13 0.17 0.09 0.14 0.25 0.26 0.22 0.24 0.28 0.28 0.31 0.37 0.41 0.49 0.53 0.56 0.56 0.56 0.56 0.52 0.49 0.46 0.44 0.42 0.39 0.35 0.34 0.34 0.32 0.29 0.26 0.28 0.30 0.30 0.28 0.30 0.30 0.30 0.32 0.34 0.35 0.33 0.32 0.32
0.13 0.13 0.15 0.16 0.23 0.22 0.21 0.20 0.31 0.29 0.35 0.39 0.45 0.49 0.48 0.57 0.58 0.57 0.54 0.50 0.47 0.46 0.43 0.38 0.35 0.35 0.35 0.33 0.29 0.25 0.26 0.27 0.28 0.28 0.29 0.30 0.28 0.29 0.33 0.32 0.31 0.32 0.32 0.31
0.17 0.12 0.10 0.13 0.25 0.32 0.32 0.17 0.31 0.34 0.36 0.37 0.42 0.33 0.41 0.55 0.57 0.57 0.50 0.47 0.46 0.44 0.38 0.35 0.36 0.36 0.33 0.27 0.24 0.23 0.24 0.26 0.29 0.29 0.28 0.27 0.28 0.29 0.30 0.32 0.33 0.33 0.29 0.25
0.16 0.14 0.15 0.20 0.30 0.35 0.18 0.15 0.33 0.37 0.38 0.40 0.38 0.46 0.52 0.60 0.61 0.53 0.47 0.46 0.45 0.39 0.35 0.36 0.35 0.32 0.25 0.22 0.22 0.24 0.26 0.27 0.28 0.28 0.28 0.28 0.27 0.29 0.30 0.31 0.29 0.25 0.24 0.23
0.19 0.15 0.11 0.25 0.32 0.23 0.26 0.31 0.37 0.41 0.44 0.45 0.51 0.56 0.59 0.60 0.53 0.49 0.47 0.45 0.40 0.36 0.35 0.34 0.31 0.25 0.21 0.21 0.25 0.27 0.26 0.26 0.28 0.29 0.30 0.29 0.28 0.29 0.29 0.27 0.24 0.22 0.21 0.20
0.21 0.17 0.26 0.31 0.30 0.36 0.39 0.38 0.43 0.47 0.52 0.56 0.57 0.59 0.58 0.56 0.51 0.48 0.45 0.41 0.38 0.35 0.33 0.28 0.25 0.24 0.22 0.24 0.25 0.25 0.25 0.26 0.29 0.31 0.31 0.30 0.28 0.27 0.25 0.24 0.22 0.22 0.20 0.19
0.25 0.26 0.29 0.35 0.39 0.42 0.47 0.48 0.52 0.56 0.59 0.60 0.58 0.60 0.58 0.55 0.49 0.44 0.42 0.38 0.36 0.31 0.25 0.22 0.23 0.25 0.26 0.24 0.25 0.26 0.24 0.26 0.30 0.30 0.31 0.30 0.30 0.28 0.24 0.22 0.22 0.21 0.19 0.19
0.29 0.32 0.37 0.40 0.44 0.47 0.51 0.55 0.58 0.62 0.61 0.61 0.62 0.61 0.55 0.48 0.45 0.42 0.38 0.35 0.31 0.25 0.22 0.22 0.24 0.25 0.24 0.25 0.27 0.25 0.26 0.28 0.30 0.33 0.31 0.29 0.29 0.26 0.24 0.25 0.24 0.22 0.20 0.21
0.26 0.35 0.37 0.39 0.48 0.54 0.54 0.56 0.59 0.59 0.59 0.62 0.62 0.55 0.50 0.45 0.42 0.37 0.33 0.30 0.25 0.23 0.23 0.23 0.25 0.23 0.24 0.26 0.27 0.27 0.26 0.28 0.31 0.32 0.32 0.31 0.29 0.26 0.27 0.25 0.25 0.25 0.24 0.23
0.40 0.47 0.47 0.50 0.55 0.58 0.54 0.58 0.62 0.61 0.62 0.55 0.54 0.51 0.47 0.40 0.35 0.33 0.29 0.25 0.24 0.24 0.24 0.25 0.24 0.23 0.26 0.27 0.28 0.28 0.27 0.30 0.31 0.32 0.32 0.31 0.28 0.24 0.21 0.22 0.25 0.25 0.24 0.24
0.57 0.56 0.50 0.54 0.51 0.60 0.62 0.65 0.66 0.59 0.56 0.58 0.55 0.47 0.40 0.35 0.33 0.28 0.25 0.25 0.26 0.25 0.24 0.24 0.24 0.23 0.27 0.28 0.28 0.29 0.30 0.31 0.32 0.32 0.32 0.30 0.26 0.24 0.22 0.19 0.19 0.21 0.24 0.24
0.57 0.60 0.58 0.60 0.61 0.61 0.63 0.62 0.57 0.54 0.60 0.54 0.46 0.41 0.38 0.31 0.27 0.24 0.26 0.27 0.27 0.25 0.24 0.24 0.23 0.24 0.28 0.29 0.29 0.30 0.31 0.32 0.33 0.32 0.31 0.29 0.26 0.24 0.23 0.22 0.20 0.21 0.22 0.23
0.58 0.61 0.61 0.60 0.60 0.59 0.59 0.56 0.57 0.59 0.49 0.44 0.40 0.36 0.32 0.28 0.26 0.26 0.27 0.27 0.24 0.22 0.24 0.25 0.25 0.27 0.29 0.30 0.31 0.32 0.32 0.34 0.34 0.32 0.28 0.24 0.25 0.23 0.22 0.22 0.20 0.20 0.20 0.21
0.57 0.56 0.58 0.56 0.58 0.58 0.58 0.61 0.59 0.47 0.42 0.38 0.35 0.31 0.26 0.26 0.25 0.25 0.26 0.26 0.26 0.25 0.26 0.26 0.26 0.28 0.30 0.32 0.32 0.33 0.33 0.33 0.34 0.31 0.25 0.24 0.23 0.22 0.23 0.22 0.20 0.20 0.20 0.23
0.63 0.63 0.62 0.61 0.59 0.59 0.57 0.54 0.44 0.39 0.37 0.33 0.29 0.27 0.25 0.24 0.23 0.24 0.25 0.26 0.26 0.27 0.28 0.28 0.29 0.30 0.31 0.32 0.32 0.33 0.32 0.33 0.34 0.31 0.25 0.24 0.23 0.22 0.22 0.22 0.22 0.21 0.20 0.22
0.62 0.60 0.61 0.61 0.58 0.53 0.45 0.39 0.37 0.34 0.31 0.29 0.26 0.24 0.25 0.25 0.25 0.25 0.27 0.26 0.25 0.24 0.26 0.30 0.31 0.30 0.29 0.30 0.33 0.32 0.32 0.33 0.34 0.31 0.26 0.24 0.24 0.24 0.22 0.22 0.22 0.22 0.21 0.21
0.57 0.57 0.55 0.49 0.44 0.41 0.36 0.33 0.30 0.28 0.28 0.26 0.26 0.25 0.24 0.23 0.25 0.26 0.28 0.26 0.28 0.29 0.31 0.31 0.30 0.30 0.30 0.30 0.32 0.32 0.32 0.32 0.33 0.31 0.27 0.25 0.25 0.26 0.24 0.23 0.22 0.22 0.22 0.22
0.45 0.42 0.41 0.39 0.35 0.33 0.31 0.30 0.28 0.27 0.27 0.27 0.25 0.24 0.24 0.25 0.27 0.29 0.27 0.26 0.30 0.32 0.32 0.33 0.32 0.31 0.31 0.31 0.31 0.32 0.32 0.32 0.32 0.30 0.29 0.27 0.28 0.28 0.28 0.26 0.24 0.23 0.23 0.23
0.41 0.40 0.37 0.35 0.33 0.31 0.31 0.31 0.29 0.26 0.25 0.25 0.25 0.26 0.26 0.26 0.28 0.29 0.32 0.30 0.32 0.32 0.32 0.32 0.32 0.32 0.32 0.32 0.31 0.31 0.31 0.31 0.32 0.32 0.31 0.30 0.30 0.30 0.30 0.30 0.28 0.25 0.24 0.24
0.44 0.41 0.37 0.33 0.30 0.28 0.27 0.26 0.26 0.26 0.25 0.26 0.25 0.26 0.27 0.27 0.29 0.27 0.25 0.32 0.31 0.31 0.31 0.31 0.32 0.33 0.32 0.32 0.32 0.31 0.32 0.32 0.32 0.33 0.33 0.33 0.33 0.32 0.32 0.31 0.31 0.30 0.28 0.26
0.33 0.31 0.29 0.29 0.28 0.26 0.24 0.25 0.27 0.27 0.26 0.26 0.28 0.29 0.29 0.27 0.28 0.31 0.33 0.31 0.30 0.30 0.30 0.31 0.32 0.33 0.33 0.32 0.32 0.31 0.30 0.31 0.31 0.31 0.31 0.32 0.32 0.32 0.32 0.32 0.32 0.32 0.31 0.29
0.28 0.28 0.28 0.27 0.26 0.25 0.26 0.27 0.27 0.27 0.27 0.27 0.29 0.30 0.31 0.32 0.30 0.31 0.32 0.31 0.31 0.30 0.31 0.33 0.32 0.32 0.31 0.30 0.30 0.29 0.28 0.27 0.27 0.26 0.27 0.27 0.28 0.29 0.30 0.32 0.32 0.32 0.32 0.31
0.26 0.25 0.26 0.27 0.28 0.29 0.29 0.28 0.26 0.27 0.28 0.26 0.27 0.29 0.30 0.32 0.32 0.32 0.32 0.32 0.32 0.32 0.31 0.32 0.31 0.30 0.29 0.28 0.26 0.25 0.23 0.22 0.23 0.23 0.24 0.24 0.25 0.26 0.28 0.30 0.31 0.32 0.32 0.32
0.25 0.26 0.25 0.25 0.26 0.27 0.27 0.26 0.25 0.23 0.25 0.26 0.24 0.27 0.29 0.28 0.28 0.29 0.29 0.31 0.31 0.31 0.30 0.30 0.29 0.28 0.26 0.24 0.23 0.21 0.20 0.19 0.19 0.18 0.19 0.20 0.23 0.25 0.26 0.29 0.31 0.32 0.32 0.32
Wind_Speed
6 6 7 8 8 9 10 9 9 12 12 14 14 13 14 14 15 16 18 21 22 25 27 28 30 31 34 36 39 42 45 47 49 50 50 52 54 54 52 49 46 41 36 30
9 9 9 11 12 13 13 13 15 15 17 16 13 13 14 16 17 19 21 23 26 28 30 30 31 32 35 39 42 44 47 48 49 50 51 53 54 53 50 46 41 35 29 27
12 11 12 14 16 14 14 13 13 15 17 14 15 16 16 18 20 22 24 26 29 30 30 30 31 34 37 41 43 46 48 49 49 50 52 53 53 50 46 39 32 27 25 24
12 12 13 16 14 15 16 16 17 17 17 17 17 17 18 20 22 24 27 28 30 30 30 31 33 36 40 43 46 48 48 48 49 51 52 53 51 46 40 34 29 25 24 25
13 15 18 17 16 16 17 20 18 18 17 18 18 20 23 24 25 27 28 29 30 30 30 31 35 39 42 45 46 47 47 48 50 52 53 51 47 42 36 30 26 23 24 25
15 15 18 18 17 17 17 22 19 18 19 19 19 22 25 25 26 28 28 29 29 29 31 34 37 40 43 45 47 47 48 49 50 52 51 48 44 36 30 26 24 23 23 23
17 20 23 21 19 17 16 21 17 20 21 21 23 25 26 25 27 27 28 28 28 30 33 36 39 43 45 46 47 47 48 50 51 49 48 44 38 32 27 23 21 22 23 23
17 19 25 20 19 20 21 21 22 23 24 24 25 25 26 27 26 26 28 28 29 32 36 39 43 45 46 46 47 48 50 50 48 47 44 40 33 27 22 21 21 22 22 22
20 21 22 22 23 25 24 25 26 26 25 25 26 27 27 27 26 27 28 29 32 35 39 42 44 45 46 47 48 49 50 49 46 44 40 35 29 24 22 21 21 21 21 22
21 24 26 27 28 28 28 29 27 27 26 26 27 27 27 27 27 27 29 31 35 38 41 43 45 45 46 48 48 49 49 46 43 40 35 31 26 23 21 21 20 20 21 21
26 27 29 29 29 29 29 28 27 27 27 27 27 28 27 26 27 28 31 34 37 40 42 44 45 46 47 48 47 47 47 44 40 36 31 27 23 21 20 20 20 19 20 20
27 27 27 28 27 26 27 28 28 27 27 28 28 26 25 26 27 30 34 37 40 41 43 45 45 46 47 47 47 47 45 41 36 31 27 23 21 21 20 20 19 19 19 19
29 27 28 29 29 28 28 27 27 27 26 25 25 24 25 27 30 33 37 39 40 42 44 45 46 47 47 47 46 44 41 37 32 28 24 22 21 20 19 19 18 18 18 18
28 26 29 28 29 27 26 26 24 24 24 24 23 24 26 29 33 36 38 39 41 43 44 45 47 47 47 46 44 41 37 34 29 26 23 21 21 20 19 18 17 17 17 17
28 29 30 29 27 25 24 23 22 23 23 22 24 26 29 32 35 37 38 40 42 43 45 46 47 48 45 44 40 37 34 31 27 25 23 20 20 20 19 18 17 17 17 17
28 28 28 26 24 23 23 22 21 23 22 24 26 29 32 34 35 37 38 40 41 44 45 47 46 45 43 40 37 34 32 30 26 23 20 20 20 20 19 17 17 17 17 16
26 25 24 22 22 22 22 22 22 22 24 27 30 32 33 34 36 37 39 40 42 44 45 44 44 43 40 37 35 33 31 28 24 21 20 20 20 19 18 17 17 17 17 17
23 22 22 21 20 20 20 21 22 25 28 29 31 32 34 35 36 37 39 40 42 44 44 43 42 40 37 36 34 32 31 27 22 20 19 19 19 18 18 18 19 18 18 17
20 19 19 18 18 20 21 23 26 28 30 31 33 34 35 36 37 38 40 41 43 44 44 41 39 38 37 35 32 31 29 24 21 20 19 19 19 19 19 19 19 19 19 19
18 18 18 18 20 22 24 26 29 31 32 32 33 34 36 37 38 40 41 42 43 44 42 39 38 36 35 33 31 28 25 22 20 19 20 20 20 21 21 21 21 21 20 20
19 20 21 22 24 26 28 30 30 31 33 33 35 36 37 38 39 41 42 42 42 41 39 38 36 35 33 32 29 26 24 21 20 20 21 22 22 23 23 22 22 22 22 22
23 24 25 26 27 29 30 31 32 33 34 35 36 37 39 40 41 42 42 42 41 39 38 37 35 33 31 30 28 25 23 21 21 22 23 24 24 25 25 24 24 23 23 23
26 26 27 29 30 31 31 32 33 34 35 37 38 39 40 42 42 42 42 39 38 37 37 35 33 32 30 28 27 25 24 24 25 26 27 27 28 28 28 27 27 26 25 24
27 28 29 30 30 32 33 33 35 36 37 39 40 41 43 43 42 41 40 39 38 37 36 34 32 31 29 27 26 25 25 26 27 28 29 30 30 30 30 30 30 29 28 27
29 30 30 31 32 33 35 37 38 39 40 42 42 42 42 41 41 41 39 39 37 35 34 32 31 30 28 27 26 26 26 27 28 30 31 31 32 32 31 31 30 30 29 28
29 31 32 33 35 36 38 39 40 41 42 43 43 42 42 42 41 41 40 38 35 34 31 30 29 28 27 26 26 27 28 29 30 31 31 32 31 31 31 30 30 29 28 28
30 32 34 35 37 39 41 42 43 43 43 43 43 43 41 41 39 38 37 34 31 29 28 29 28 27 26 26 26 26 27 28 29 31 32 33 32 31 30 29 29 28 27 26
Wind_Direction
235 252 251 256 251 254 261 274 280 294 284 286 277 279 281 284 290 294 296 299 301 302 303 302 303 305 308 311 313 314 316 317 318 319 319 319 320 320 318 316 313 310 310 307
243 265 271 266 263 267 272 277 284 288 292 294 287 284 284 284 289 294 297 300 303 306 305 303 304 305 309 312 314 315 316 317 318 319 320 320 320 320 319 317 315 310 308 308
253 266 272 277 263 261 270 278 282 282 289 290 289 284 283 287 291 294 298 300 304 306 305 305 305 307 310 313 315 315 316 317 319 320 320 320 320 319 319 318 317 314 311 310
255 268 271 269 275 267 271 281 282 290 289 285 288 289 289 290 294 296 299 301 304 305 306 306 307 310 312 314 315 316 317 318 319 319 319 320 320 319 318 316 313 310 310 312
257 261 277 275 268 268 272 280 279 284 287 289 292 295 295 293 296 298 299 302 305 306 306 308 309 312 314 315 317 317 317 317 318 319 319 320 319 317 315 313 311 310 311 313
261 263 266 273 274 274 278 286 274 280 283 288 290 294 296 292 297 299 300 303 305 307 308 310 312 314 316 317 317 318 318 318 319 319 320 320 319 316 314 312 309 310 313 314
262 267 276 273 271 274 279 281 278 279 283 284 287 293 298 296 297 299 302 305 306 308 310 312 314 315 316 317 317 318 318 318 319 319 321 320 319 314 312 311 311 312 314 315
267 273 278 268 271 267 277 283 281 283 285 283 288 294 297 296 297 300 303 304 306 309 311 313 315 316 317 317 318 318 318 318 318 320 320 320 318 313 310 309 310 312 314 316
261 270 278 271 275 276 278 283 283 283 286 286 289 292 296 296 297 300 302 304 307 310 312 314 316 316 317 318 318 319 319 317 317 319 319 318 315 310 308 308 309 310 313 316
277 276 273 275 276 280 280 282 284 283 285 286 289 291 297 296 297 300 303 306 309 312 313 315 316 317 317 318 318 319 320 318 318 317 317 316 313 308 306 306 307 309 313 316
277 280 281 280 279 279 279 280 283 284 286 285 290 293 294 294 297 301 304 307 310 312 314 315 316 317 317 318 318 319 320 319 317 316 315 315 312 309 308 306 306 308 312 315
278 280 280 283 284 281 280 280 280 282 287 289 290 290 291 294 298 303 306 309 311 313 314 315 316 317 317 318 317 318 319 319 317 314 312 311 310 309 309 307 305 306 309 314
281 282 282 285 285 283 282 280 282 284 285 286 290 287 292 296 300 305 308 310 312 313 314 315 316 317 317 318 318 317 318 318 317 313 309 307 308 308 309 309 307 308 311 311
281 283 284 285 285 282 282 283 282 284 285 287 286 290 295 299 302 306 310 311 313 314 315 316 317 317 317 317 317 317 317 316 313 311 307 303 305 305 305 306 305 308 310 314
282 281 284 286 284 282 281 281 282 282 284 283 287 293 297 301 304 307 310 312 314 315 316 317 317 317 317 317 317 317 316 315 311 308 305 301 302 303 302 302 302 304 308 311
287 287 284 282 279 278 278 278 279 279 280 286 291 296 299 302 305 308 310 313 315 316 317 317 318 318 318 318 317 316 316 312 307 305 303 301 302 302 299 297 299 302 303 306
286 287 286 283 280 281 279 280 276 276 284 289 293 297 301 303 305 307 311 314 315 316 317 318 318 319 318 317 316 315 314 311 304 301 300 302 303 301 296 295 296 300 299 302
289 289 286 283 280 279 276 274 278 284 288 292 296 298 301 303 305 308 311 313 315 317 318 318 319 319 318 316 314 313 311 307 299 295 298 301 302 302 298 295 294 296 298 299
294 292 287 280 276 275 277 281 285 288 292 295 297 298 301 303 305 307 310 313 315 317 317 318 318 319 319 318 315 314 310 304 294 292 295 297 298 301 300 296 294 291 293 295
293 291 288 284 284 284 284 287 290 293 295 296 297 300 302 304 304 307 310 312 314 315 317 316 317 317 318 318 316 314 311 304 294 292 293 295 296 297 300 298 294 292 289 291
291 290 290 289 289 290 292 294 294 294 296 297 299 301 302 304 305 307 309 311 313 315 316 316 316 315 316 317 315 312 309 303 296 293 293 294 294 295 296 297 295 292 290 288
291 292 293 293 293 294 294 294 293 295 297 299 300 301 302 304 305 306 308 309 312 313 314 315 314 313 313 314 313 309 306 301 298 295 295 295 294 293 293 292 293 292 290 288
291 291 292 293 294 295 296 296 296 297 298 299 301 302 302 304 305 307 308 309 309 310 312 313 313 312 310 311 310 307 303 301 299 296 295 294 293 291 290 289 288 288 288 286
294 294 295 295 296 296 297 297 298 299 299 300 301 303 303 305 305 305 305 306 307 308 309 310 311 311 309 308 307 307 305 303 301 300 298 296 294 292 289 287 284 282 282 283
295 296 297 297 297 297 298 299 299 300 301 302 303 303 303 304 303 305 305 305 304 305 307 308 309 309 308 307 305 305 305 306 305 305 303 300 296 292 290 287 285 282 278 278
298 299 299 300 300 300 301 301 301 301 301 302 302 303 303 303 303 304 303 302 301 302 303 305 308 308 307 306 306 306 306 307 308 308 307 304 300 296 292 288 285 282 278 274
302 303 303 303 303 303 303 302 302 302 302 302 302 303 303 303 304 304 303 302 299 300 302 304 306 307 306 306 307 308 309 311 312 313 312 308 304 298 294 290 286 281 278 273